北斗一号 G3 (BEIDOU-1 G3)

导读

BEIDOU-1 G3 是中国北斗一号卫星导航系统的一部分,属于早期试验型卫星。该系统是中国自主研发的全球卫星导航系统(GNSS)的前身,主要用于提供区域定位、导航和授时服务。G3 卫星于2000年发射,与北斗一号系统的其他卫星共同构建了基本的双星定位体系,为后续北斗二号和北斗三号系统的建设奠定了基础。该卫星采用地球静止轨道,支持中国及周边地区的应用,标志着中国在卫星导航领域的重要进展。

基本信息
目录编号:
27813
目录名称:
BD 1 03
国际标识:
2003-021A
轨道中心:
EARTH
卫星名称:
北斗一号 G3
卫星全名:
北斗一号 G3 (BEIDOU-1 G3)
卫星状态:
在轨 (已飞行8513 天)
发射日期:
2003-05-24 UTC
国别 :
中国 (CN)
星等 :
--
该卫星已列入 空间交会检测服务 Space Conjunction Data Service (SCDS) ,当前飞行风险评估等级: 无高风险
轨道信息
数据来源 国际轨道数据 AOE轨道数据
星历时间 2026-09-13T04:26:18+0800
8小时前
查看轨道信息
2026-09-10T00:00:00+0800
3天前
查看轨道信息
半长轴 42306.273km 42305.877km
偏心率 0.0017345 0.0017426
轨道倾角 11.544° 11.538°
近地点辐角 306.623° 307.387°
升交点赤经 40.411° 40.441°
平近点角 52.098° 347.352°
近地点 35854.755km 35854.017km
远地点 36001.517km 36001.463km
周期 1443.334分钟 1443.314分钟
每日圈数 0.99769 0.997704
详细信息
卫星平台:
东方红三号
平衡模式:
三轴稳定
制造商(研发单位):
中国空间技术研究院
制造商所在国:
中国
使用方式:
暂无
卫星简介
北斗卫星导航系统是中国着眼于国家安全和经济社会发展需要,自主建设运行的全球卫星导航系统,是为全球用户提供全天候、全天时、高精度的定位、导航和授时服务的国家重要时空基础设施。该卫星已退役。
2D轨道图
3D轨道图
轨道高度分析图
轨道倾角分析图
轨道综合分析图
查看轨道综合分析图
与全量物体交会距离演化趋势
与全量物体交会风险概率演化趋势